Location: Madden
(51.3728°N, 114.3297°W)
Time: 16:53:25
(UTC+00:00)

CUTE-I - Pass Details

Date: 16 December 2023
Orbit: 807 x 823 km, 98.7° (Epoch: 03 March)

Event Time Altitude Azimuth Distance (km) Brightness Sun altitude
Rises 02:24:10 0° 212° (SSW) 3,325 ? -25.9°
Reaches altitude 10° 02:27:20 10° 232° (SW) 2,402 ? -26.4°
Maximum altitude 02:30:46 17° 272° (W) 1,947 ? -26.9°
Drops below altitude 10° 02:34:15 10° 313° (NW) 2,421 ? -27.5°
Sets 02:37:28 0° 333° (NNW) 3,363 ? -28.0°
